Regional Weather Roundup
Issued by NWS Albany, NY

Home | Current Version | Previous Version | Text Only | Print | Product List | Glossary On
Versions: 1 2 3 4 5 6 7 8 9 10 11 12 13 14 15 16 17 18 19 20 21 22 23 24 25 26 27 28 29 30 31 32 33 34 35 36 37 38 39 40 41 42 43 44 45 46 47 48
000
ASUS41 KALY 292310
RWRALY

NEW YORK STATE HOURLY WEATHER ROUNDUP
NATIONAL WEATHER SERVICE ALBANY NY
700 PM EDT MON JUN 29 2015

NOTE: "FAIR" INDICATES FEW OR NO CLOUDS BELOW 12,000 FEET WITH NO
SIGNIFICANT WEATHER AND/OR NO OBSTRUCTIONS TO VISIBILITY.

NYZ032-033-038>043-046>054-057>066-NYZ062>081-300000-
EAST


CITY           SKY/WX    TMP DP  RH WIND       PRES   REMARKS
ALBANY         PTSUNNY   69  57  65 W9        29.89R
GLENS FALLS    CLOUDY    69  55  60 W3        29.86R
POUGHKEEPSIE   SUNNY     75  57  53 SW6       29.89R
NEWBURGH       MOSUNNY   73  61  64 W7        29.91S
MONTGOMERY     SUNNY     74  57  55 W7        29.89S
WHITE PLAINS   MOSUNNY   74  56  53 CALM      29.91R
ISLIP          MOSUNNY   72  60  66 SW10      29.90R
NEW YORK CITY  MOSUNNY   77  53  43 W9        29.91R
CENTRAL PARK   SUNNY     75  55  49 VRB7      29.94R
$$

NYZ005>009-017-018-044>046-055-056-300000-
CENTRAL


CITY           SKY/WX    TMP DP  RH WIND       PRES   REMARKS
FULTON         SUNNY     67  53  61 NW6       29.90R
SYRACUSE       PTSUNNY   70  54  56 NW8       29.89R
ROME           CLOUDY    67  56  67 NW6       29.91R
ELMIRA         MOSUNNY   72  59  63 NW3       29.90R
BINGHAMTON     SUNNY     69  54  58 NW7       29.92R
MONTICELLO     SUNNY     70  55  60 W3        29.94S
$$

NYZ026>034-041>043-300000-
NORTH


CITY           SKY/WX    TMP DP  RH WIND       PRES   REMARKS
WATERTOWN      SUNNY     65  55  70 SW8       29.89S
FORT DRUM      NOT AVBL
MASSENA        MOSUNNY   68  56  65 SW7       29.86R
SARANAC LAKE   LGT RAIN  58  56  93 SW7       29.89R
PLATTSBURGH    LGT RAIN  64  57  78 CALM      29.86R
$$

NYZ001>004-010>016-019>021-300000-
WEST


CITY           SKY/WX    TMP DP  RH WIND       PRES   REMARKS
NIAGARA FALLS  PTSUNNY   71  52  50 S7        29.88S
BUFFALO        PTSUNNY   71  51  49 S8        29.89S
DUNKIRK        CLOUDY    70  60  70 CALM      29.90S
JAMESTOWN      CLOUDY    64  55  72 S6        29.94S
WELLSVILLE     CLOUDY    65  55  70 SW8       29.97R
ROCHESTER      PTSUNNY   73  56  54 CALM      29.89S
PENN YAN       MOSUNNY   71  55  56 NW3       29.91R
$$

             KEY
       WCI = WIND CHILL INDEX
       VSB = VISIBILITY
       HX  = HEAT INDEX
$$


USA.gov is the U.S. government's official web portal to all federal, state and local government web resources and services.